| time (UTC) | temp F | wind direction | speed MPH | gust MPH | rain 1hr in | rain 24hr in | rain mn in | humidity % | barometer mb |
| 20260505101541 | 51 | 200 | 3.0 | 11.0 | 0.00 | 0.00 | 0.00 | 68 | 1008.2 |
| 20260505100049 | 51 | 213 | 3.0 | 10.0 | 0.00 | 0.00 | 0.00 | 68 | 1008.2 |
| 20260505094553 | 51 | 218 | 4.0 | 10.0 | 0.00 | 0.00 | 0.00 | 68 | 1008.2 |
| 20260505093048 | 52 | 182 | 4.0 | 9.0 | 0.00 | 0.00 | 0.00 | 66 | 1008.1 |
| 20260505091555 | 52 | 204 | 3.0 | 8.0 | 0.00 | 0.00 | 0.00 | 65 | 1008.1 |
| 20260505090052 | 52 | 198 | 2.0 | 9.0 | 0.00 | 0.00 | 0.00 | 65 | 1008.2 |
| 20260505084541 | 52 | 216 | 3.0 | 7.0 | 0.00 | 0.00 | 0.00 | 64 | 1008.3 |
| 20260505083052 | 52 | 215 | 3.0 | 8.0 | 0.00 | 0.00 | 0.00 | 64 | 1008.4 |
| 20260505081558 | 52 | 210 | 3.0 | 8.0 | 0.00 | 0.00 | 0.00 | 64 | 1008.4 |
| 20260505080049 | 52 | 220 | 4.0 | 9.0 | 0.00 | 0.00 | 0.00 | 63 | 1008.6 |
| 20260505074604 | 53 | 223 | 5.0 | 10.0 | 0.00 | 0.00 | 0.00 | 62 | 1008.5 |
| 20260505073052 | 53 | 208 | 7.0 | 12.0 | 0.00 | 0.00 | 0.00 | 61 | 1008.6 |
| 20260505071547 | 53 | 227 | 7.0 | 15.0 | 0.00 | 0.00 | 0.00 | 60 | 1008.6 |
| 20260505070047 | 54 | 221 | 8.0 | 14.0 | 0.00 | 0.00 | 0.00 | 59 | 1008.5 |
| 20260505064547 | 54 | 227 | 6.0 | 14.0 | 0.00 | 0.00 | 0.00 | 59 | 1008.5 |
| 20260505063045 | 54 | 247 | 6.0 | 13.0 | 0.00 | 0.00 | 0.00 | 58 | 1008.6 |
| 20260505061606 | 54 | 240 | 7.0 | 14.0 | 0.00 | 0.00 | 0.00 | 57 | 1008.7 |
| 20260505060046 | 55 | 202 | 7.0 | 14.0 | 0.00 | 0.00 | 0.00 | 57 | 1008.6 |
| 20260505054604 | 55 | 209 | 8.0 | 14.0 | 0.00 | 0.00 | 0.00 | 55 | 1008.6 |
| 20260505053049 | 55 | 180 | 8.0 | 16.0 | 0.00 | 0.00 | 0.00 | 55 | 1008.7 |
| 20260505051547 | 55 | 220 | 6.0 | 13.0 | 0.00 | 0.00 | 0.00 | 55 | 1008.7 |
| 20260505041541 | 57 | 232 | 7.0 | 15.0 | 0.00 | 0.00 | 0.00 | 51 | 1008.6 |
| 20260505040050 | 58 | 206 | 9.0 | 14.0 | 0.00 | 0.00 | 0.00 | 50 | 1008.5 |
| 20260505034545 | 58 | 207 | 6.0 | 17.0 | 0.00 | 0.00 | 0.00 | 49 | 1008.2 |
| 20260505033048 | 59 | 257 | 7.0 | 12.0 | 0.00 | 0.00 | 0.00 | 48 | 1008.2 |
| 20260505031541 | 59 | 211 | 6.0 | 17.0 | 0.00 | 0.00 | 0.00 | 48 | 1008.2 |
| 20260505030048 | 59 | 224 | 8.0 | 19.0 | 0.00 | 0.00 | 0.00 | 47 | 1008.1 |
| 20260505024605 | 59 | 225 | 7.0 | 17.0 | 0.00 | 0.00 | 0.00 | 46 | 1008.0 |
| 20260505023049 | 59 | 206 | 8.0 | 20.0 | 0.00 | 0.00 | 0.00 | 45 | 1007.9 |
| 20260505021602 | 60 | 225 | 5.0 | 12.0 | 0.00 | 0.00 | 0.00 | 41 | 1007.9 |
| 20260505020047 | 60 | 205 | 4.0 | 9.0 | 0.00 | 0.00 | 0.00 | 41 | 1007.7 |
| 20260505014545 | 60 | 229 | 4.0 | 8.0 | 0.00 | 0.00 | 0.00 | 40 | 1007.4 |
| 20260505013040 | 60 | 219 | 2.0 | 6.0 | 0.00 | 0.00 | 0.00 | 41 | 1007.2 |
| 20260505011554 | 60 | 224 | 3.0 | 7.0 | 0.00 | 0.00 | 0.00 | 40 | 1007.1 |
| 20260505010048 | 60 | 238 | 2.0 | 5.0 | 0.00 | 0.00 | 0.00 | 40 | 1006.9 |
| 20260505004546 | 61 | 209 | 3.0 | 5.0 | 0.00 | 0.00 | 0.00 | 38 | 1006.6 |
| 20260505003040 | 62 | 200 | 2.0 | 6.0 | 0.00 | 0.00 | 0.00 | 36 | 1006.5 |
| 20260505001541 | 62 | 187 | 1.0 | 4.0 | 0.00 | 0.00 | 0.00 | 37 | 1006.3 |
| 20260505000049 | 62 | 229 | 1.0 | 3.0 | 0.00 | 0.00 | 0.00 | 36 | 1006.1 |
| 20260504234547 | 64 | 248 | 1.0 | 4.0 | 0.00 | 0.00 | 0.00 | 34 | 1005.9 |
| 20260504233055 | 65 | 249 | 2.0 | 6.0 | 0.00 | 0.00 | 0.00 | 33 | 1005.9 |
| 20260504231541 | 66 | 0 | 2.0 | 12.0 | 0.00 | 0.00 | 0.00 | 32 | 1005.7 |
| 20260504230047 | 67 | 215 | 5.0 | 10.0 | 0.00 | 0.00 | 0.00 | 29 | 1005.3 |
| 20260504224546 | 67 | 246 | 5.0 | 9.0 | 0.00 | 0.00 | 0.00 | 30 | 1005.3 |
| 20260504223049 | 67 | 212 | 5.0 | 12.0 | 0.00 | 0.00 | 0.00 | 30 | 1005.2 |
| 20260504221547 | 67 | 269 | 8.0 | 17.0 | 0.00 | 0.00 | 0.00 | 28 | 1005.1 |
| 20260504220104 | 68 | 269 | 10.0 | 18.0 | 0.00 | 0.00 | 0.00 | 27 | 1005.1 |
| 20260504214547 | 69 | 282 | 8.0 | 16.0 | 0.00 | 0.00 | 0.00 | 27 | 1005.1 |
| 20260504213050 | 69 | 306 | 7.0 | 17.0 | 0.00 | 0.00 | 0.00 | 30 | 1005.0 |
| 20260504211541 | 69 | 271 | 10.0 | 19.0 | 0.00 | 0.00 | 0.00 | 27 | 1005.0 |
| 20260504210049 | 69 | 273 | 10.0 | 20.0 | 0.00 | 0.00 | 0.00 | 27 | 1004.9 |
| 20260504204557 | 69 | 281 | 6.0 | 16.0 | 0.00 | 0.00 | 0.00 | 31 | 1004.8 |
| 20260504203046 | 68 | 266 | 8.0 | 17.0 | 0.00 | 0.00 | 0.00 | 30 | 1004.7 |
| 20260504201551 | 67 | 256 | 9.0 | 21.0 | 0.00 | 0.00 | 0.00 | 29 | 1004.7 |
| 20260504200053 | 67 | 241 | 10.0 | 18.0 | 0.00 | 0.00 | 0.00 | 30 | 1004.7 |
| 20260504194549 | 68 | 306 | 8.0 | 18.0 | 0.00 | 0.00 | 0.00 | 31 | 1004.9 |
| 20260504193047 | 68 | 286 | 8.0 | 20.0 | 0.00 | 0.00 | 0.00 | 27 | 1004.9 |
| 20260504191545 | 68 | 268 | 5.0 | 19.0 | 0.00 | 0.00 | 0.00 | 36 | 1005.0 |
| 20260504190044 | 66 | 315 | 9.0 | 19.0 | 0.00 | 0.00 | 0.00 | 31 | 1005.1 |
| 20260504184540 | 65 | 281 | 11.0 | 21.0 | 0.00 | 0.00 | 0.00 | 30 | 1005.1 |
| 20260504183040 | 67 | 279 | 10.0 | 26.0 | 0.00 | 0.00 | 0.00 | 29 | 1005.1 |
| 20260504181552 | 67 | 252 | 13.0 | 26.0 | 0.00 | 0.00 | 0.00 | 27 | 1005.0 |
| 20260504180050 | 68 | 239 | 8.0 | 24.0 | 0.00 | 0.00 | 0.00 | 30 | 1004.9 |
| 20260504174546 | 65 | 263 | 12.0 | 25.0 | 0.00 | 0.00 | 0.00 | 30 | 1005.0 |
| 20260504173050 | 65 | 252 | 12.0 | 25.0 | 0.00 | 0.00 | 0.00 | 30 | 1005.2 |
| 20260504171548 | 66 | 309 | 15.0 | 23.0 | 0.00 | 0.00 | 0.00 | 28 | 1005.1 |